Weather History for KBNL - February, 2013

Change the Weather History Date:

Tuesday, February 19, 2013

  Actual Average (KOGB) Record (KOGB)
Temperature  
Mean Temperature 44 °F 50 °F  
Max Temperature 53 °F 62 °F 80 °F (1956)
Min Temperature 35 °F 39 °F 13 °F (1958)
Degree Days  
Heating Degree Days 21 15  
Month to date heating degree days 312  
Since 1 July heating degree days 1809  
Cooling Degree Days 0 0  
Month to date cooling degree days 0  
Year to date cooling degree days 1  
Moisture  
Dew Point 43 °F    
Average Humidity 91    
Maximum Humidity 100    
Minimum Humidity 75    
Precipitation  
Precipitation 0.12 in 0.16 in 1.92 in (1979)
Month to date precipitation 2.25  
Year to date precipitation 6.23  
Sea Level Pressure  
Sea Level Pressure 30.09 in    
Wind  
Wind Speed 1 mph (WSW)    
Max Wind Speed 10 mph    
Max Gust Speed -    
Visibility 7 miles    
Events Fog , Rain    
T = Trace of Precipitation, MM = Missing Value Source: NWS Daily Summary

Daily Weather History Graph

Daily Weather History Graph

Search for Another Location

Airport or City:

Trip Planner

Search our weather history database for the weather conditions in past years. The results will help you decide how hot, cold, wet, or windy it might be!

Date:

Astronomy

Feb. 19, 2013 Rise Set
Actual Time 7:04 AM EST 6:14 PM EST
Civil Twilight 6:39 AM EST 6:39 PM EST
Nautical Twilight 6:10 AM EST 7:08 PM EST
Astronomical Twilight 5:42 AM EST 7:37 PM EST
Moon 12:53 PM EST (2/19) 2:26 AM EST (2/19)
Length of Visible Light 11h 59m
Length of Day
11h 09m
Waxing Gibbous, 67% of the Moon is Illuminated
Feb 19
Waxing Gibbous
Feb 25
Full
Mar 4
Last Quarter
Mar 11
New
Mar 19
First Quarter

Hourly Weather History & Observations

Time (EST) Temp. Windchill Dew Point Humidity Pressure Visibility Wind Dir Wind Speed Gust Speed Precip Events Conditions
12:15 AM 37.4 °F - 30.2 °F 75% 30.27 in 10.0 mi Calm Calm - N/A   Clear
12:35 AM 35.6 °F - 30.2 °F 81% 30.26 in 10.0 mi Calm Calm - N/A   Clear
12:55 AM 35.6 °F - 30.2 °F 81% 30.24 in 10.0 mi Calm Calm - N/A   Clear
1:15 AM 35.6 °F - 30.2 °F 81% 30.24 in 10.0 mi Calm Calm - N/A   Clear
1:35 AM 35.6 °F - 30.2 °F 81% 30.23 in 10.0 mi Calm Calm - N/A   Clear
1:55 AM 35.6 °F - 30.2 °F 81% 30.22 in 10.0 mi Calm Calm - N/A   Clear
2:15 AM 35.6 °F - 30.2 °F 81% 30.20 in 10.0 mi Calm Calm - N/A   Clear
2:35 AM 35.6 °F - 32.0 °F 87% 30.19 in 10.0 mi Calm Calm - N/A   Clear
2:55 AM 35.6 °F - 32.0 °F 87% 30.18 in 10.0 mi Calm Calm - N/A   Clear
3:15 AM 37.4 °F - 32.0 °F 81% 30.17 in 10.0 mi Calm Calm - N/A   Clear
3:35 AM 37.4 °F - 32.0 °F 81% 30.16 in 10.0 mi Calm Calm - N/A   Clear
3:55 AM 35.6 °F - 32.0 °F 87% 30.15 in 10.0 mi Calm Calm - N/A   Clear
4:15 AM 35.6 °F - 32.0 °F 87% 30.14 in 10.0 mi Calm Calm - N/A   Clear
4:35 AM 35.6 °F - 32.0 °F 87% 30.13 in 10.0 mi Calm Calm - N/A   Clear
4:55 AM 37.4 °F - 32.0 °F 81% 30.13 in 10.0 mi Calm Calm - N/A   Clear
5:15 AM 37.4 °F - 32.0 °F 81% 30.12 in 10.0 mi Calm Calm - N/A   Scattered Clouds
5:35 AM 37.4 °F - 33.8 °F 87% 30.12 in 10.0 mi Calm Calm - N/A   Partly Cloudy
5:55 AM 37.4 °F - 33.8 °F 87% 30.12 in 10.0 mi Calm Calm - N/A   Clear
6:15 AM 37.4 °F - 33.8 °F 87% 30.12 in 10.0 mi Calm Calm - N/A   Clear
6:35 AM 39.2 °F - 35.6 °F 87% 30.12 in 10.0 mi Calm Calm - N/A   Mostly Cloudy
6:55 AM 39.2 °F - 35.6 °F 87% 30.12 in 10.0 mi Calm Calm - N/A   Overcast
7:15 AM 41.0 °F - 37.4 °F 87% 30.13 in 10.0 mi Calm Calm - N/A   Mostly Cloudy
7:35 AM 42.8 °F - 37.4 °F 81% 30.12 in 10.0 mi Calm Calm - N/A   Overcast
7:55 AM 42.8 °F - 39.2 °F 87% 30.14 in 10.0 mi Calm Calm - N/A   Overcast
8:15 AM 42.8 °F - 39.2 °F 87% 30.14 in 8.0 mi Calm Calm - N/A Rain Light Rain
8:35 AM 42.8 °F - 39.2 °F 87% 30.13 in 7.0 mi Calm Calm - N/A Rain Light Rain
8:55 AM 44.6 °F - 42.8 °F 93% 30.12 in 5.0 mi Calm Calm - N/A Rain Light Rain
9:15 AM 44.6 °F - 42.8 °F 93% 30.11 in 6.0 mi Calm Calm - N/A Rain Light Rain
9:35 AM 46.4 °F - 44.6 °F 93% 30.10 in 5.0 mi Calm Calm - 0.01 in Rain Light Rain
9:55 AM 48.2 °F - 46.4 °F 93% 30.11 in 9.0 mi Calm Calm - 0.01 in Rain Light Rain
10:15 AM 48.2 °F - 46.4 °F 93% 30.11 in 8.0 mi Calm Calm - N/A   Light Drizzle
10:35 AM 46.4 °F - 46.4 °F 100% 30.10 in 4.0 mi Calm Calm - 0.01 in Rain Rain
10:55 AM 48.2 °F - 48.2 °F 100% 30.10 in 2.5 mi Calm Calm - 0.07 in Rain Light Rain
11:15 AM 50.0 °F - 48.2 °F 94% 30.09 in 4.0 mi South 5.8 mph - N/A Rain Light Rain
11:35 AM 50.0 °F - 48.2 °F 94% 30.08 in 2.0 mi Calm Calm - 0.01 in Rain Light Rain
11:55 AM 51.8 °F - 50.0 °F 94% 30.06 in 7.0 mi Calm Calm - 0.01 in   Mostly Cloudy
12:15 PM 51.8 °F - 50.0 °F 94% 30.05 in 10.0 mi South 4.6 mph - N/A   Overcast
12:35 PM 51.8 °F - 50.0 °F 94% 30.06 in 10.0 mi West 5.8 mph - N/A   Overcast
1:15 PM 51.8 °F - 51.8 °F 100% 30.04 in 1.2 mi SW 5.8 mph - 0.01 in   Overcast
1:35 PM 51.8 °F - 51.8 °F 100% 30.03 in 1.8 mi Calm Calm - 0.01 in   Overcast
1:55 PM 51.8 °F - 51.8 °F 100% 30.02 in 2.5 mi SW 6.9 mph - 0.01 in   Light Drizzle
2:15 PM 51.8 °F - 51.8 °F 100% 30.02 in 1.2 mi SW 6.9 mph - 0.01 in Rain Light Rain
2:35 PM 53.6 °F - 51.8 °F 94% 30.02 in 3.0 mi SW 10.4 mph - 0.01 in   Overcast
2:55 PM 53.6 °F - 51.8 °F 94% 30.01 in 1.0 mi SW 6.9 mph - 0.02 in   Drizzle
3:15 PM 53.6 °F - 51.8 °F 94% 30.01 in 2.5 mi SW 8.1 mph - N/A   Overcast
3:35 PM 53.6 °F - 51.8 °F 94% 30.00 in 10.0 mi SW 8.1 mph - N/A   Overcast
3:55 PM 53.6 °F - 51.8 °F 94% 30.01 in 10.0 mi WSW 5.8 mph - N/A   Overcast
4:15 PM 53.6 °F - 51.8 °F 94% 30.01 in 10.0 mi WSW 5.8 mph - N/A   Overcast
4:35 PM 53.6 °F - 51.8 °F 94% 30.01 in 10.0 mi WSW 6.9 mph - N/A   Overcast
4:55 PM 53.6 °F - 51.8 °F 94% 30.01 in 10.0 mi SW 5.8 mph - N/A   Overcast
5:15 PM 53.6 °F - 51.8 °F 94% 30.01 in 10.0 mi Calm Calm - N/A   Overcast
5:35 PM 53.6 °F - 51.8 °F 94% 30.00 in 10.0 mi Calm Calm - N/A   Scattered Clouds
5:55 PM 53.6 °F - 51.8 °F 94% 30.01 in 10.0 mi Calm Calm - N/A   Clear
6:15 PM 51.8 °F - 51.8 °F 100% 30.01 in 10.0 mi Calm Calm - N/A   Clear
6:35 PM 51.8 °F - 50.0 °F 94% 30.02 in 10.0 mi Calm Calm - N/A   Clear
7:35 PM 48.2 °F - 48.2 °F 100% 30.03 in 0.5 mi Calm Calm - N/A Fog Fog
7:55 PM 46.4 °F - 46.4 °F 100% 30.04 in 0.2 mi Calm Calm - N/A Fog Fog
8:15 PM 46.4 °F - 46.4 °F 100% 30.04 in 0.5 mi Calm Calm - N/A Fog Fog
8:55 PM 50.0 °F - 50.0 °F 100% 30.04 in 0.2 mi SW 4.6 mph - N/A Fog Fog
9:15 PM 50.0 °F - 48.2 °F 94% 30.05 in 0.2 mi West 3.5 mph - N/A Fog Fog
9:35 PM 48.2 °F - 48.2 °F 100% 30.06 in 2.5 mi WSW 5.8 mph - N/A   Mostly Cloudy
9:55 PM 48.2 °F - 48.2 °F 100% 30.07 in 0.8 mi Calm Calm - N/A   Mostly Cloudy
10:15 PM 46.4 °F - 46.4 °F 100% 30.07 in 9.0 mi Calm Calm - N/A   Clear
10:35 PM 44.6 °F 42.2 °F 44.6 °F 100% 30.07 in 10.0 mi West 4.6 mph - N/A   Clear
10:55 PM 44.6 °F 43.1 °F 44.6 °F 100% 30.07 in 10.0 mi West 3.5 mph - N/A   Clear
11:15 PM 44.6 °F - 42.8 °F 93% 30.08 in 10.0 mi Calm Calm - N/A   Clear
11:35 PM 44.6 °F 42.2 °F 39.2 °F 81% 30.08 in 10.0 mi WNW 4.6 mph - N/A   Clear
11:55 PM 42.8 °F 40.1 °F 37.4 °F 81% 30.08 in 10.0 mi WNW 4.6 mph - N/A   Clear